Flag for Norway Weather past 2 weeks in Orkanger/Fannrem, Norway

39 °F

Partly cloudy.

Feels Like: 31 °F
Forecast: 24 / 37 °F
Wind: 15 mph from Southeast

Location: Orland Iii

Current Time: Nov 29, 2015 at 6:20:47 AM

Latest Report: Nov 29, 2015 at 3:50 AM

Visibility: N/A

Pressure: 28.80 "Hg

Humidity: 56%

Dew point: 25 °F

Location of Orkanger/FannremLocation

Historic Weather in Orkanger/Fannrem — Graph


Orkanger/Fannrem temperature yesterday

Maximum temperature yesterday: 43 °F (at 12:50 AM)
Minimum temperature yesterday: 37 °F (at 10:50 AM)
Average temperature yesterday: 39 °F

Past Weeks' High & Low Weather Summary

High68 °F (Nov 19, 9:20 PM)100% (Nov 20, 3:50 PM)29.80 "Hg (Nov 20, 3:50 PM)
Low-6 °F (Nov 22, 2:50 AM)28% (Nov 19, 9:20 PM)28.80 "Hg (Nov 29, 3:50 AM)
Average38 °F84%29.35 "Hg
* Reported Nov 14 3:50 AM — Nov 29 3:50 AM, Orkanger/Fannrem, Weather by CustomWeather, © 2015

Note: Actual official high and low records may vary slightly from our data, if they occured in-between our weather recording intervals... More about our weather records


Orkanger/Fannrem weather history for previous 24 hours

Time TempWeatherWind HumidityBarometerVisibility
3:50 AM
Sun, Nov 29
39 °FPartly cloudy.15 mph56%28.80 "HgN/A
2:50 AM39 °FPartly cloudy.17 mph61%28.82 "HgN/A
1:50 AM39 °FPartly cloudy.18 mph56%28.82 "HgN/A
12:50 AM39 °FPartly cloudy.21 mph52%28.85 "HgN/A
11:50 PM
Sat, Nov 28
39 °FPartly cloudy.20 mph56%28.91 "HgN/A
10:50 PM37 °FPartly cloudy.15 mph65%28.94 "HgN/A
9:50 PM37 °FPassing clouds.10 mph70%28.97 "HgN/A
9:20 PM37 °FPassing clouds.10 mph70%28.97 "HgN/A
8:50 PM37 °FPassing clouds.10 mph65%28.97 "HgN/A
8:20 PM37 °FPassing clouds.12 mph65%29.00 "HgN/A
7:50 PM37 °FPassing clouds.10 mph70%29.00 "HgN/A
7:20 PM39 °FPassing clouds.9 mph65%29.03 "HgN/A
6:50 PM37 °FPassing clouds.12 mph75%29.03 "HgN/A
6:20 PM37 °FPassing clouds.12 mph75%29.03 "HgN/A
5:50 PM37 °FPassing clouds.10 mph75%29.03 "HgN/A
5:20 PM37 °FPassing clouds.9 mph70%29.03 "HgN/A
4:50 PM37 °FPassing clouds.9 mph65%29.03 "HgN/A
4:20 PM39 °FPassing clouds.10 mph61%29.03 "HgN/A
3:50 PM39 °FPassing clouds.10 mph65%29.06 "HgN/A
3:20 PM39 °FPassing clouds.10 mph61%29.06 "HgN/A
2:50 PM37 °FPassing clouds.9 mph70%29.06 "HgN/A
2:20 PM39 °FPassing clouds.9 mph61%29.06 "HgN/A
1:50 PM39 °FPassing clouds.9 mph65%29.06 "HgN/A
1:20 PM41 °FScattered clouds.9 mph66%29.06 "HgN/A
12:50 PM39 °FPassing clouds.9 mph70%29.06 "HgN/A
12:20 PM39 °FPassing clouds.12 mph70%29.06 "HgN/A
11:50 AM37 °FScattered clouds.6 mph87%29.06 "HgN/A
11:20 AM37 °FScattered clouds.8 mph87%29.06 "HgN/A
10:50 AM37 °FScattered showers. Scattered clouds.18 mph87%29.09 "HgN/A
10:20 AM39 °FScattered showers. Broken clouds.23 mph81%29.09 "HgN/A
9:50 AM39 °FScattered clouds.15 mph75%29.06 "HgN/A
9:20 AM39 °FPassing clouds.17 mph75%29.06 "HgN/A
8:50 AM39 °FPassing clouds.13 mph70%29.06 "HgN/A
8:20 AM39 °FPassing clouds.16 mph70%29.06 "HgN/A
7:50 AM41 °FPassing clouds.16 mph70%29.03 "HgN/A
7:20 AM41 °FPassing clouds.12 mph70%29.03 "HgN/A
6:50 AM41 °FPassing clouds.16 mph70%29.03 "HgN/A
6:20 AM41 °FPassing clouds.18 mph70%29.03 "HgN/A
Weather by CustomWeather, © 2015

See weather overviewHow to use our weather pages